| time (UTC) | temp C | wind direction | speed KPH | gust KPH | rain 1hr cm | rain 24hr cm | rain mn cm | humidity % | barometer mb |
| 20260905093801 | 24 | 118 | 0.0 | 0.0 | 0.00 | 0.00 | 0.00 | 72 | 1012.8 |
| 20260905092800 | 25 | 118 | 0.0 | 0.0 | 0.00 | 0.00 | 0.00 | 72 | 1013.0 |
| 20260905092300 | 25 | 145 | 0.0 | 0.0 | 0.00 | 0.00 | 0.00 | 72 | 1013.0 |
| 20260905091801 | 25 | 145 | 0.0 | 0.0 | 0.00 | 0.00 | 0.00 | 71 | 1013.0 |
| 20260905090801 | 25 | 145 | 0.0 | 0.0 | 0.00 | 0.00 | 0.00 | 71 | 1012.7 |
| 20260905085800 | 25 | 118 | 0.0 | 0.0 | 0.00 | 0.00 | 0.00 | 72 | 1012.6 |
| 20260905085301 | 25 | 100 | 0.0 | 0.0 | 0.00 | 0.00 | 0.00 | 72 | 1012.6 |
| 20260905084801 | 25 | 127 | 0.0 | 0.0 | 0.00 | 0.00 | 0.00 | 72 | 1012.7 |
| 20260905084300 | 25 | 122 | 0.0 | 0.0 | 0.00 | 0.00 | 0.00 | 72 | 1012.7 |
| 20260905083801 | 25 | 100 | 0.0 | 0.0 | 0.00 | 0.00 | 0.00 | 72 | 1012.7 |
| 20260905083300 | 25 | 101 | 0.0 | 0.0 | 0.00 | 0.00 | 0.00 | 71 | 1012.7 |
| 20260905082800 | 25 | 100 | 0.0 | 3.2 | 0.00 | 0.00 | 0.00 | 71 | 1012.9 |
| 20260905082301 | 25 | 137 | 0.0 | 3.2 | 0.00 | 0.00 | 0.00 | 72 | 1012.9 |
| 20260905081800 | 25 | 118 | 0.0 | 0.0 | 0.00 | 0.00 | 0.00 | 71 | 1012.9 |
| 20260905081301 | 25 | 143 | 0.0 | 0.0 | 0.00 | 0.00 | 0.00 | 71 | 1012.9 |
| 20260905080801 | 25 | 122 | 0.0 | 0.0 | 0.00 | 0.00 | 0.00 | 70 | 1013.0 |
| 20260905080301 | 25 | 123 | 0.0 | 0.0 | 0.00 | 0.00 | 0.00 | 69 | 1013.0 |
| 20260905075801 | 25 | 133 | 0.0 | 0.0 | 0.00 | 0.00 | 0.00 | 69 | 1013.0 |
| 20260905075300 | 25 | 100 | 0.0 | 0.0 | 0.00 | 0.00 | 0.00 | 69 | 1013.0 |
| 20260905074300 | 25 | 80 | 0.0 | 0.0 | 0.00 | 0.00 | 0.00 | 69 | 1013.3 |
| 20260905073800 | 25 | 114 | 0.0 | 0.0 | 0.00 | 0.00 | 0.00 | 69 | 1013.3 |
| 20260905072305 | 25 | 34 | 0.0 | 0.0 | 0.00 | 0.00 | 0.00 | 69 | 1013.3 |
| 20260905071801 | 26 | 136 | 0.0 | 0.0 | 0.00 | 0.00 | 0.00 | 68 | 1013.3 |
| 20260905071301 | 26 | 144 | 0.0 | 0.0 | 0.00 | 0.00 | 0.00 | 68 | 1013.3 |
| 20260905070801 | 26 | 112 | 0.0 | 0.0 | 0.00 | 0.00 | 0.00 | 68 | 1013.2 |
| 20260905070301 | 26 | 122 | 0.0 | 0.0 | 0.00 | 0.00 | 0.00 | 68 | 1013.2 |
| 20260905065301 | 26 | 80 | 0.0 | 0.0 | 0.00 | 0.00 | 0.00 | 67 | 1013.2 |
| 20260905064800 | 26 | 190 | 0.0 | 0.0 | 0.00 | 0.00 | 0.00 | 66 | 1013.3 |
| 20260905064300 | 26 | 100 | 0.0 | 0.0 | 0.00 | 0.00 | 0.00 | 65 | 1013.4 |
| 20260905063800 | 26 | 104 | 0.0 | 0.0 | 0.00 | 0.00 | 0.00 | 64 | 1013.4 |
| 20260905063301 | 26 | 122 | 0.0 | 0.0 | 0.00 | 0.00 | 0.00 | 64 | 1013.4 |
| 20260905062300 | 26 | 102 | 0.0 | 0.0 | 0.00 | 0.00 | 0.00 | 63 | 1013.5 |
| 20260905061800 | 26 | 118 | 0.0 | 0.0 | 0.00 | 0.00 | 0.00 | 63 | 1013.5 |
| 20260905061301 | 26 | 257 | 0.0 | 0.0 | 0.00 | 0.00 | 0.00 | 62 | 1013.5 |
| 20260905060801 | 26 | 122 | 0.0 | 0.0 | 0.00 | 0.00 | 0.00 | 61 | 1013.3 |
| 20260905055801 | 26 | 105 | 0.0 | 0.0 | 0.00 | 0.00 | 0.00 | 61 | 1013.3 |
| 20260905055301 | 26 | 145 | 0.0 | 0.0 | 0.00 | 0.00 | 0.00 | 61 | 1013.3 |
| 20260905054800 | 27 | 140 | 0.0 | 0.0 | 0.00 | 0.00 | 0.00 | 60 | 1013.4 |
| 20260905054301 | 27 | 122 | 0.0 | 0.0 | 0.00 | 0.00 | 0.00 | 60 | 1013.4 |
| 20260905052801 | 27 | 109 | 0.0 | 0.0 | 0.00 | 0.00 | 0.00 | 60 | 1013.5 |
| 20260905052300 | 27 | 102 | 0.0 | 0.0 | 0.00 | 0.00 | 0.00 | 60 | 1013.5 |
| 20260905051801 | 27 | 136 | 0.0 | 0.0 | 0.00 | 0.00 | 0.00 | 60 | 1013.5 |
| 20260905051301 | 27 | 122 | 0.0 | 0.0 | 0.00 | 0.00 | 0.00 | 60 | 1013.5 |
| 20260905045300 | 27 | 121 | 0.0 | 0.0 | 0.00 | 0.00 | 0.00 | 59 | 1013.5 |
| 20260905044301 | 27 | 101 | 0.0 | 0.0 | 0.00 | 0.00 | 0.00 | 59 | 1013.2 |
| 20260905043800 | 27 | 104 | 0.0 | 0.0 | 0.00 | 0.00 | 0.00 | 58 | 1013.2 |
| 20260905043300 | 27 | 102 | 0.0 | 0.0 | 0.00 | 0.00 | 0.00 | 58 | 1013.2 |
| 20260905042800 | 27 | 178 | 0.0 | 0.0 | 0.00 | 0.00 | 0.00 | 58 | 1013.4 |
| 20260905042301 | 27 | 100 | 0.0 | 0.0 | 0.00 | 0.00 | 0.00 | 58 | 1013.5 |
| 20260905041800 | 27 | 122 | 0.0 | 0.0 | 0.00 | 0.00 | 0.00 | 58 | 1013.5 |
| 20260905040301 | 28 | 145 | 1.6 | 8.0 | 0.00 | 0.00 | 0.00 | 57 | 1013.1 |
| 20260905035801 | 28 | 100 | 1.6 | 8.0 | 0.00 | 0.00 | 0.00 | 57 | 1013.1 |
| 20260905035301 | 28 | 100 | 1.6 | 3.2 | 0.00 | 0.00 | 0.00 | 57 | 1013.1 |
| 20260905034801 | 28 | 104 | 0.0 | 3.2 | 0.00 | 0.00 | 0.00 | 57 | 1013.3 |
| 20260905034301 | 28 | 100 | 0.0 | 0.0 | 0.00 | 0.00 | 0.00 | 56 | 1013.3 |
| 20260905033801 | 28 | 112 | 0.0 | 0.0 | 0.00 | 0.00 | 0.00 | 56 | 1013.3 |
| 20260905032801 | 28 | 140 | 0.0 | 0.0 | 0.00 | 0.00 | 0.00 | 56 | 1013.5 |
| 20260905032301 | 28 | 209 | 0.0 | 0.0 | 0.00 | 0.00 | 0.00 | 55 | 1013.5 |
| 20260905031800 | 28 | 233 | 0.0 | 0.0 | 0.00 | 0.00 | 0.00 | 56 | 1013.5 |
| 20260905030301 | 28 | 122 | 0.0 | 0.0 | 0.00 | 0.00 | 0.00 | 56 | 1013.5 |
| 20260905024801 | 28 | 100 | 1.6 | 3.2 | 0.00 | 0.00 | 0.00 | 55 | 1013.3 |
| 20260905024300 | 28 | 120 | 0.0 | 3.2 | 0.00 | 0.00 | 0.00 | 55 | 1013.2 |
| 20260905023800 | 28 | 122 | 0.0 | 0.0 | 0.00 | 0.00 | 0.00 | 54 | 1013.2 |
| 20260905022801 | 29 | 122 | 0.0 | 0.0 | 0.00 | 0.00 | 0.00 | 52 | 1013.0 |
| 20260905022301 | 29 | 257 | 0.0 | 0.0 | 0.00 | 0.00 | 0.00 | 52 | 1013.0 |
| 20260905021301 | 29 | 122 | 0.0 | 0.0 | 0.00 | 0.00 | 0.00 | 50 | 1013.0 |
| 20260905020801 | 30 | 253 | 0.0 | 0.0 | 0.00 | 0.00 | 0.00 | 50 | 1012.8 |
| 20260905020301 | 30 | 101 | 0.0 | 0.0 | 0.00 | 0.00 | 0.00 | 50 | 1012.8 |
| 20260905015801 | 30 | 118 | 0.0 | 0.0 | 0.00 | 0.00 | 0.00 | 49 | 1012.8 |
| 20260905015301 | 30 | 146 | 0.0 | 0.0 | 0.00 | 0.00 | 0.00 | 49 | 1012.8 |
| 20260905014801 | 30 | 136 | 0.0 | 0.0 | 0.00 | 0.00 | 0.00 | 49 | 1012.8 |
| 20260905014301 | 30 | 101 | 0.0 | 0.0 | 0.00 | 0.00 | 0.00 | 48 | 1012.8 |
| 20260905013801 | 30 | 135 | 0.0 | 0.0 | 0.00 | 0.00 | 0.00 | 48 | 1012.8 |
| 20260905012300 | 30 | 80 | 0.0 | 0.0 | 0.00 | 0.00 | 0.00 | 47 | 1012.4 |
| 20260905011800 | 31 | 145 | 0.0 | 0.0 | 0.00 | 0.00 | 0.00 | 47 | 1012.4 |
| 20260905010801 | 31 | 145 | 1.6 | 0.0 | 0.00 | 0.00 | 0.00 | 46 | 1012.6 |
| 20260905005301 | 31 | 121 | 0.0 | 0.0 | 0.00 | 0.00 | 0.00 | 45 | 1012.6 |
| 20260905004801 | 31 | 118 | 0.0 | 0.0 | 0.00 | 0.00 | 0.00 | 44 | 1012.4 |
| 20260905004301 | 32 | 121 | 0.0 | 0.0 | 0.00 | 0.00 | 0.00 | 44 | 1012.3 |
| 20260905003301 | 32 | 100 | 0.0 | 3.2 | 0.00 | 0.00 | 0.00 | 43 | 1012.3 |
| 20260905002301 | 32 | 122 | 0.0 | 0.0 | 0.00 | 0.00 | 0.00 | 42 | 1012.6 |
| 20260905001801 | 32 | 107 | 0.0 | 0.0 | 0.00 | 0.00 | 0.00 | 42 | 1012.6 |
| 20260905001301 | 32 | 122 | 1.6 | 0.0 | 0.00 | 0.00 | 0.00 | 41 | 1012.6 |
| 20260905000801 | 32 | 100 | 1.6 | 8.0 | 0.00 | 0.00 | 0.00 | 40 | 1012.2 |
| 20260904235801 | 33 | 149 | 3.2 | 8.0 | 0.00 | 0.00 | 0.00 | 39 | 1012.1 |
| 20260904235301 | 33 | 121 | 4.8 | 8.0 | 0.00 | 0.00 | 0.00 | 39 | 1012.1 |
| 20260904233801 | 33 | 100 | 4.8 | 11.3 | 0.00 | 0.00 | 0.00 | 37 | 1012.0 |
| 20260904233301 | 33 | 122 | 4.8 | 8.0 | 0.00 | 0.00 | 0.00 | 37 | 1012.0 |
| 20260904232801 | 34 | 100 | 3.2 | 9.7 | 0.00 | 0.00 | 0.00 | 36 | 1012.0 |
| 20260904232301 | 35 | 122 | 3.2 | 11.3 | 0.00 | 0.00 | 0.00 | 35 | 1012.0 |
| 20260904231801 | 35 | 252 | 4.8 | 11.3 | 0.00 | 0.00 | 0.00 | 34 | 1012.0 |
| 20260904231300 | 35 | 76 | 4.8 | 11.3 | 0.00 | 0.00 | 0.00 | 33 | 1012.0 |
| 20260904230801 | 36 | 108 | 4.8 | 11.3 | 0.00 | 0.00 | 0.00 | 32 | 1012.2 |
| 20260904230301 | 36 | 122 | 4.8 | 9.7 | 0.00 | 0.00 | 0.00 | 31 | 1012.2 |
| 20260904225305 | 37 | 101 | 4.8 | 12.9 | 0.00 | 0.00 | 0.00 | 30 | 1012.2 |
| 20260904224801 | 37 | 118 | 6.4 | 12.9 | 0.00 | 0.00 | 0.00 | 30 | 1012.8 |
| 20260904224301 | 37 | 184 | 4.8 | 12.9 | 0.00 | 0.00 | 0.00 | 29 | 1012.8 |
| 20260904223801 | 37 | 115 | 3.2 | 12.9 | 0.00 | 0.00 | 0.00 | 27 | 1012.8 |
| 20260904223301 | 38 | 142 | 3.2 | 8.0 | 0.00 | 0.00 | 0.00 | 26 | 1012.8 |
| 20260904222305 | 39 | 127 | 3.2 | 3.2 | 0.00 | 0.00 | 0.00 | 25 | 1012.7 |
| 20260904221801 | 39 | 164 | 4.8 | 11.3 | 0.00 | 0.00 | 0.00 | 25 | 1012.7 |
| 20260904221301 | 39 | 100 | 4.8 | 16.1 | 0.00 | 0.00 | 0.00 | 25 | 1012.7 |
| 20260904220802 | 39 | 145 | 3.2 | 11.3 | 0.00 | 0.00 | 0.00 | 25 | 1012.9 |
| 20260904220301 | 39 | 124 | 4.8 | 11.3 | 0.00 | 0.00 | 0.00 | 25 | 1012.9 |
| 20260904215802 | 39 | 100 | 4.8 | 11.3 | 0.00 | 0.00 | 0.00 | 25 | 1012.9 |
| 20260904215300 | 39 | 302 | 3.2 | 11.3 | 0.00 | 0.00 | 0.00 | 25 | 1012.9 |
| 20260904214801 | 38 | 175 | 3.2 | 11.3 | 0.00 | 0.00 | 0.00 | 27 | 1013.2 |
| 20260904214301 | 38 | 322 | 3.2 | 14.5 | 0.00 | 0.00 | 0.00 | 26 | 1013.3 |
| 20260904213801 | 39 | 117 | 3.2 | 14.5 | 0.00 | 0.00 | 0.00 | 24 | 1013.3 |
| 20260904213301 | 40 | 148 | 3.2 | 9.7 | 0.00 | 0.00 | 0.00 | 24 | 1013.3 |
| 20260904212801 | 40 | 302 | 3.2 | 8.0 | 0.00 | 0.00 | 0.00 | 26 | 1013.1 |
| 20260904212301 | 40 | 302 | 1.6 | 14.5 | 0.00 | 0.00 | 0.00 | 26 | 1013.1 |
| 20260904211801 | 40 | 139 | 1.6 | 14.5 | 0.00 | 0.00 | 0.00 | 25 | 1013.1 |
| 20260904211301 | 40 | 97 | 4.8 | 9.7 | 0.00 | 0.00 | 0.00 | 28 | 1013.1 |
| 20260904210801 | 38 | 225 | 6.4 | 14.5 | 0.00 | 0.00 | 0.00 | 26 | 1013.3 |
| 20260904210301 | 38 | 143 | 6.4 | 14.5 | 0.00 | 0.00 | 0.00 | 28 | 1013.4 |
| 20260904205301 | 37 | 283 | 4.8 | 9.7 | 0.00 | 0.00 | 0.00 | 28 | 1013.4 |
| 20260904204802 | 38 | 122 | 4.8 | 9.7 | 0.00 | 0.00 | 0.00 | 28 | 1013.7 |
| 20260904204301 | 38 | 212 | 4.8 | 19.3 | 0.00 | 0.00 | 0.00 | 28 | 1013.8 |
| 20260904203800 | 38 | 109 | 8.0 | 11.3 | 0.00 | 0.00 | 0.00 | 27 | 1013.8 |
| 20260904203301 | 39 | 124 | 4.8 | 14.5 | 0.00 | 0.00 | 0.00 | 28 | 1013.8 |
| 20260904202801 | 38 | 269 | 6.4 | 14.5 | 0.00 | 0.00 | 0.00 | 29 | 1014.1 |
| 20260904202305 | 38 | 254 | 4.8 | 14.5 | 0.00 | 0.00 | 0.00 | 29 | 1014.2 |
| 20260904201801 | 38 | 95 | 3.2 | 14.5 | 0.00 | 0.00 | 0.00 | 29 | 1014.2 |
| 20260904201301 | 38 | 327 | 3.2 | 16.1 | 0.00 | 0.00 | 0.00 | 32 | 1014.2 |
| 20260904200802 | 39 | 122 | 3.2 | 4.8 | 0.00 | 0.00 | 0.00 | 30 | 1014.3 |
| 20260904200301 | 38 | 148 | 4.8 | 11.3 | 0.00 | 0.00 | 0.00 | 32 | 1014.3 |
| 20260904195801 | 38 | 288 | 8.0 | 11.3 | 0.00 | 0.00 | 0.00 | 33 | 1014.3 |
| 20260904195301 | 37 | 259 | 8.0 | 19.3 | 0.00 | 0.00 | 0.00 | 33 | 1014.3 |
| 20260904194801 | 37 | 131 | 4.8 | 19.3 | 0.00 | 0.00 | 0.00 | 33 | 1014.5 |
| 20260904193801 | 37 | 111 | 8.0 | 11.3 | 0.00 | 0.00 | 0.00 | 33 | 1014.7 |
| 20260904193301 | 37 | 102 | 8.0 | 11.3 | 0.00 | 0.00 | 0.00 | 33 | 1014.7 |
| 20260904192801 | 38 | 133 | 3.2 | 11.3 | 0.00 | 0.00 | 0.00 | 32 | 1014.9 |
| 20260904191801 | 38 | 293 | 3.2 | 8.0 | 0.00 | 0.00 | 0.00 | 35 | 1014.9 |
| 20260904191301 | 38 | 260 | 3.2 | 9.7 | 0.00 | 0.00 | 0.00 | 34 | 1014.9 |
| 20260904190801 | 38 | 295 | 3.2 | 4.8 | 0.00 | 0.00 | 0.00 | 34 | 1014.8 |
| 20260904190301 | 38 | 119 | 3.2 | 8.0 | 0.00 | 0.00 | 0.00 | 34 | 1014.8 |
| 20260904185801 | 37 | 253 | 4.8 | 8.0 | 0.00 | 0.00 | 0.00 | 35 | 1014.8 |
| 20260904185301 | 37 | 302 | 4.8 | 19.3 | 0.00 | 0.00 | 0.00 | 35 | 1014.8 |
| 20260904184801 | 37 | 302 | 3.2 | 19.3 | 0.00 | 0.00 | 0.00 | 36 | 1015.0 |
| 20260904184301 | 36 | 168 | 3.2 | 9.7 | 0.00 | 0.00 | 0.00 | 38 | 1015.0 |
| 20260904183801 | 35 | 159 | 4.8 | 9.7 | 0.00 | 0.00 | 0.00 | 40 | 1015.0 |
| 20260904183301 | 35 | 144 | 4.8 | 19.3 | 0.00 | 0.00 | 0.00 | 38 | 1015.0 |
| 20260904182801 | 35 | 95 | 3.2 | 8.0 | 0.00 | 0.00 | 0.00 | 41 | 1015.1 |
| 20260904182301 | 33 | 97 | 3.2 | 9.7 | 0.00 | 0.00 | 0.00 | 41 | 1015.1 |
| 20260904181801 | 34 | 235 | 3.2 | 11.3 | 0.00 | 0.00 | 0.00 | 42 | 1015.1 |
| 20260904181301 | 34 | 257 | 4.8 | 14.5 | 0.00 | 0.00 | 0.00 | 42 | 1015.1 |
| 20260904180801 | 34 | 246 | 4.8 | 14.5 | 0.00 | 0.00 | 0.00 | 43 | 1015.5 |
| 20260904180301 | 33 | 97 | 8.0 | 14.5 | 0.00 | 0.00 | 0.00 | 42 | 1015.6 |
| 20260904175801 | 33 | 307 | 4.8 | 11.3 | 0.00 | 0.00 | 0.00 | 44 | 1015.6 |
| 20260904175301 | 33 | 214 | 8.0 | 19.3 | 0.00 | 0.00 | 0.00 | 45 | 1015.6 |
| 20260904174800 | 33 | 266 | 8.0 | 20.9 | 0.00 | 0.00 | 0.00 | 44 | 1015.2 |
| 20260904174301 | 33 | 263 | 4.8 | 22.5 | 0.00 | 0.00 | 0.00 | 44 | 1015.1 |
| 20260904173801 | 32 | 302 | 4.8 | 22.5 | 0.00 | 0.00 | 0.00 | 45 | 1015.1 |
| 20260904173301 | 32 | 302 | 8.0 | 14.5 | 0.00 | 0.00 | 0.00 | 46 | 1015.1 |
| 20260904172801 | 32 | 218 | 9.7 | 25.7 | 0.00 | 0.00 | 0.00 | 46 | 1015.6 |
| 20260904172305 | 32 | 346 | 8.0 | 25.7 | 0.00 | 0.00 | 0.00 | 46 | 1015.8 |
| 20260904171801 | 32 | 258 | 8.0 | 9.7 | 0.00 | 0.00 | 0.00 | 47 | 1015.8 |
| 20260904171301 | 32 | 237 | 9.7 | 14.5 | 0.00 | 0.00 | 0.00 | 48 | 1015.8 |
| 20260904170801 | 32 | 110 | 9.7 | 22.5 | 0.00 | 0.00 | 0.00 | 48 | 1015.9 |
| 20260904170301 | 32 | 324 | 9.7 | 14.5 | 0.00 | 0.00 | 0.00 | 48 | 1015.9 |
| 20260904165804 | 31 | 297 | 8.0 | 20.9 | 0.00 | 0.00 | 0.00 | 48 | 1015.9 |
| 20260904165305 | 31 | 97 | 8.0 | 20.9 | 0.00 | 0.00 | 0.00 | 50 | 1015.9 |
| 20260904164801 | 31 | 132 | 4.8 | 12.9 | 0.00 | 0.00 | 0.00 | 50 | 1016.1 |
| 20260904163301 | 31 | 301 | 6.4 | 19.3 | 0.00 | 0.00 | 0.00 | 52 | 1016.1 |
| 20260904162301 | 30 | 122 | 9.7 | 14.5 | 0.00 | 0.00 | 0.00 | 53 | 1016.1 |
| 20260904161801 | 30 | 331 | 9.7 | 14.5 | 0.00 | 0.00 | 0.00 | 54 | 1016.1 |
| 20260904161301 | 30 | 166 | 6.4 | 12.9 | 0.00 | 0.00 | 0.00 | 54 | 1016.1 |
| 20260904160801 | 30 | 127 | 4.8 | 8.0 | 0.00 | 0.00 | 0.00 | 55 | 1015.9 |
| 20260904160301 | 30 | 120 | 4.8 | 16.1 | 0.00 | 0.00 | 0.00 | 56 | 1015.8 |
| 20260904155801 | 30 | 133 | 8.0 | 16.1 | 0.00 | 0.00 | 0.00 | 56 | 1015.8 |
| 20260904154301 | 30 | 121 | 9.7 | 22.5 | 0.00 | 0.00 | 0.00 | 57 | 1015.9 |
| 20260904153301 | 29 | 164 | 11.3 | 25.7 | 0.00 | 0.00 | 0.00 | 57 | 1015.9 |
| 20260904152801 | 29 | 86 | 9.7 | 14.5 | 0.00 | 0.00 | 0.00 | 57 | 1015.9 |
| 20260904152301 | 29 | 209 | 8.0 | 14.5 | 0.00 | 0.00 | 0.00 | 57 | 1015.9 |
| 20260904151801 | 29 | 83 | 8.0 | 9.7 | 0.00 | 0.00 | 0.00 | 58 | 1015.9 |
| 20260904151302 | 29 | 82 | 8.0 | 9.7 | 0.00 | 0.00 | 0.00 | 58 | 1015.9 |
| 20260904150801 | 29 | 89 | 11.3 | 14.5 | 0.00 | 0.00 | 0.00 | 58 | 1015.7 |
| 20260904150301 | 28 | 80 | 9.7 | 22.5 | 0.00 | 0.00 | 0.00 | 58 | 1015.6 |
| 20260904145801 | 28 | 145 | 8.0 | 20.9 | 0.00 | 0.00 | 0.00 | 59 | 1015.6 |
| 20260904145305 | 28 | 124 | 8.0 | 14.5 | 0.00 | 0.00 | 0.00 | 59 | 1015.6 |
| 20260904144801 | 28 | 82 | 9.7 | 22.5 | 0.00 | 0.00 | 0.00 | 60 | 1015.4 |
| 20260904143801 | 28 | 100 | 9.7 | 25.7 | 0.00 | 0.00 | 0.00 | 60 | 1015.4 |
| 20260904143301 | 28 | 254 | 8.0 | 14.5 | 0.00 | 0.00 | 0.00 | 60 | 1015.4 |
| 20260904142801 | 28 | 163 | 8.0 | 16.1 | 0.00 | 0.00 | 0.00 | 60 | 1014.9 |
| 20260904142301 | 28 | 79 | 8.0 | 16.1 | 0.00 | 0.00 | 0.00 | 61 | 1014.6 |
| 20260904141801 | 27 | 333 | 8.0 | 20.9 | 0.00 | 0.00 | 0.00 | 63 | 1014.6 |
| 20260904141301 | 27 | 123 | 8.0 | 20.9 | 0.00 | 0.00 | 0.00 | 63 | 1014.6 |
| 20260904140301 | 27 | 164 | 3.2 | 16.1 | 0.00 | 0.00 | 0.00 | 64 | 1015.6 |
| 20260904135801 | 27 | 114 | 3.2 | 16.1 | 0.00 | 0.00 | 0.00 | 65 | 1015.6 |
| 20260904135301 | 27 | 257 | 3.2 | 16.1 | 0.00 | 0.00 | 0.00 | 65 | 1015.6 |
| 20260904134301 | 26 | 74 | 3.2 | 4.8 | 0.00 | 0.00 | 0.00 | 67 | 1015.4 |
| 20260904133801 | 26 | 330 | 3.2 | 12.9 | 0.00 | 0.00 | 0.00 | 67 | 1015.4 |
| 20260904133301 | 26 | 99 | 4.8 | 12.9 | 0.00 | 0.00 | 0.00 | 68 | 1015.4 |
| 20260904132301 | 25 | 122 | 1.6 | 8.0 | 0.00 | 0.00 | 0.00 | 70 | 1015.5 |
| 20260904131801 | 25 | 100 | 1.6 | 8.0 | 0.00 | 0.00 | 0.00 | 71 | 1015.5 |
| 20260904131301 | 25 | 145 | 1.6 | 4.8 | 0.00 | 0.00 | 0.00 | 72 | 1015.5 |
| 20260904130302 | 25 | 100 | 3.2 | 4.8 | 0.00 | 0.00 | 0.00 | 72 | 1015.6 |
| 20260904125801 | 24 | 144 | 1.6 | 4.8 | 0.00 | 0.00 | 0.00 | 73 | 1015.6 |
| 20260904125305 | 24 | 122 | 1.6 | 0.0 | 0.00 | 0.00 | 0.00 | 73 | 1015.6 |
| 20260904124801 | 24 | 122 | 0.0 | 4.8 | 0.00 | 0.00 | 0.00 | 74 | 1015.4 |
| 20260904124302 | 24 | 122 | 1.6 | 0.0 | 0.00 | 0.00 | 0.00 | 74 | 1015.3 |
| 20260904123801 | 24 | 108 | 1.6 | 4.8 | 0.00 | 0.00 | 0.00 | 74 | 1015.3 |
| 20260904123301 | 24 | 100 | 1.6 | 4.8 | 0.00 | 0.00 | 0.00 | 75 | 1015.3 |
| 20260904122801 | 23 | 140 | 0.0 | 0.0 | 0.00 | 0.00 | 0.00 | 76 | 1015.3 |
| 20260904122302 | 23 | 122 | 0.0 | 0.0 | 0.00 | 0.00 | 0.00 | 76 | 1015.3 |
| 20260904121801 | 23 | 122 | 0.0 | 0.0 | 0.00 | 0.00 | 0.00 | 75 | 1015.3 |
| 20260904121302 | 23 | 122 | 1.6 | 0.0 | 0.00 | 0.00 | 0.00 | 75 | 1015.3 |
| 20260904120801 | 23 | 100 | 1.6 | 4.8 | 0.00 | 0.00 | 0.00 | 76 | 1015.3 |
| 20260904115801 | 23 | 122 | 0.0 | 0.0 | 0.00 | 0.00 | 0.00 | 75 | 1015.3 |
| 20260904115301 | 23 | 100 | 0.0 | 0.0 | 0.00 | 0.00 | 0.00 | 74 | 1015.3 |
| 20260904114802 | 23 | 123 | 0.0 | 0.0 | 0.00 | 0.00 | 0.00 | 74 | 1015.2 |
| 20260904113802 | 23 | 100 | 0.0 | 0.0 | 0.00 | 0.00 | 0.00 | 74 | 1015.1 |
| 20260904113302 | 23 | 122 | 0.0 | 0.0 | 0.00 | 0.00 | 0.00 | 74 | 1015.1 |
| 20260904112801 | 23 | 284 | 0.0 | 0.0 | 0.00 | 0.00 | 0.00 | 73 | 1015.0 |
| 20260904112305 | 23 | 235 | 0.0 | 0.0 | 0.00 | 0.00 | 0.00 | 73 | 1014.7 |
| 20260904111801 | 23 | 145 | 0.0 | 0.0 | 0.00 | 0.00 | 0.00 | 73 | 1014.7 |
| 20260904111302 | 23 | 122 | 0.0 | 0.0 | 0.00 | 0.00 | 0.00 | 72 | 1014.7 |
| 20260904110801 | 23 | 145 | 0.0 | 0.0 | 0.00 | 0.00 | 0.00 | 72 | 1014.6 |
| 20260904110301 | 23 | 100 | 0.0 | 0.0 | 0.00 | 0.00 | 0.00 | 72 | 1014.6 |
| 20260904105802 | 23 | 145 | 0.0 | 0.0 | 0.00 | 0.00 | 0.00 | 71 | 1014.6 |
| 20260904105305 | 24 | 102 | 0.0 | 0.0 | 0.00 | 0.00 | 0.00 | 71 | 1014.6 |
| 20260904104801 | 24 | 135 | 1.6 | 3.2 | 0.00 | 0.00 | 0.00 | 71 | 1014.6 |
| 20260904104301 | 24 | 122 | 1.6 | 8.0 | 0.00 | 0.00 | 0.00 | 71 | 1014.6 |
| 20260904102801 | 24 | 93 | 0.0 | 3.2 | 0.00 | 0.00 | 0.00 | 71 | 1014.4 |
| 20260904102301 | 24 | 100 | 0.0 | 0.0 | 0.00 | 0.00 | 0.00 | 71 | 1014.3 |
| 20260904101801 | 24 | 100 | 0.0 | 0.0 | 0.00 | 0.00 | 0.00 | 71 | 1014.3 |
| 20260904100802 | 24 | 132 | 0.0 | 0.0 | 0.00 | 0.00 | 0.00 | 71 | 1014.3 |
| 20260904100301 | 24 | 100 | 1.6 | 0.0 | 0.00 | 0.00 | 0.00 | 71 | 1014.3 |
| 20260904095802 | 24 | 129 | 0.0 | 4.8 | 0.00 | 0.00 | 0.00 | 71 | 1014.3 |
| 20260904095305 | 24 | 100 | 0.0 | 0.0 | 0.00 | 0.00 | 0.00 | 71 | 1014.3 |
| 20260904094801 | 24 | 161 | 0.0 | 0.0 | 0.00 | 0.00 | 0.00 | 70 | 1014.2 |
| 20260904094302 | 24 | 145 | 0.0 | 0.0 | 0.00 | 0.00 | 0.00 | 71 | 1014.2 |